www.pogodaiklimat.ru

Погода и климат >> Архив погоды >> Россия >> Краснодарский край >> Краснодар


АРХИВ ПОГОДЫ в Краснодаре

Время (UTC), дата Ветер
(напр.,м/с)
 
Видим.   Явления Облачность Т
(С)
Тd
(С)
f
(%)
Тe
(С)
Тes
(С)
Комфортность P
(гПа)
Po
(гПа)
Тmin
(С)
Tmax
(С)
R
(мм)
R24
(мм)
S
(см)
06 22.04 З 3
{10}
4000 м слабый ливневой дождь 10/10 300 м
[Cb cap]
+6.8 +3.8 81 +4 +4 холодно 1016.1 1012.5
09 22.04 З 3-11
{14}
10 км {ливн. осадки} 9/8 600 м
[Cb cap Ac trans]
+8.1 +2.1 66 +6 +8 очень
холодно
1020.3 1016.6
12 22.04 З 5-14
{14}
10 км {ливн. осадки} 9/9 600 м
[Sc]
+12.7 +0.2 42 +11 +11 холодно 1020.4 1016.8
15 22.04 З 3-11
{14}
10 км 10/5 600 м
[Sc Ac trans Ci fib]
+10.5 +0.9 51 +9 +9 холодно 1019.4 1015.8 +13.4 0.8
18 22.04 З 4
{10}
10 км 3/1 600 м
[Sc Ci fib]
+8.7 +1.9 62 +6 +6 холодно 1019.2 1015.5
21 22.04 СЗ 1 10 км 10/10 300 м
[St]
+8.1 +3.2 71 +8 +8 по сезону 1017.1 1013.5
00 23.04 СВ 1 10 км 10/10 300 м
[St]
+7.9 +3.4 73 +7 +7 по сезону 1015.2 1011.6
03 23.04 В 2 4000 м слабый ливневой дождь 10/10 200 м
[Cb cap]
+6.8 +5.7 93 +4 +4 холодно 1012.9 1009.3 +6.8 2
06 23.04 В 2 10 км 10/10 200 м
[]
+7.1 +5.5 90 +5 +5 холодно 1009.4 1005.8 +6.4
09 23.04 В 3-10
{10}
4000 м слабый ливневой дождь 10/10 200 м
[Cb cap]
+7.5 +5.3 86 +5 +5 очень
холодно
1003.6 1000.0
12 23.04 З 2
{10}
4000 м слабый ливневой дождь, в посл. час гроза 10/10 200 м
[Cb cap]
+8.3 +6.4 88 +6 +6 очень
холодно
1003.4 999.8
15 23.04 штиль 0 10 км {гроза, ливн. осадки} 10/10 300 м
[Cb cap]
+8.1 +6.8 91 +7 +7 очень
холодно
1000.0 996.4 +9.5 5
18 23.04 З 2 4000 м слабый дождь {гроза, ливн. осадки} 10/10 100 м
[Frnb]
+7.1 +6.2 94 +5 +5 холодно 1003.8 1000.2
21 23.04 З 5-13
{13}
10 км {дождь} 10/10 300 м
[Cb cap]
+5.3 +2.6 83 +1 +1 очень
холодно
1010.3 1006.7
00 24.04 З 4-12
{12}
10 км {дождь} 10/10 600 м
[Cb cap]
+6.1 +3.0 80 +2 +2 холодно 1010.3 1008.6
03 24.04 СЗ 3 10 км 10/9 300 м
[St Ac As]
+7.4 +5.6 88 +4 +4 холодно 1013.4 1009.8 +4.5 1
06 24.04 ЮЗ 4 10 км 9/8 1000 м
[Cb cap Ac trans]
+9.7 +6.1 78 +7 +8 прохладно 1012.9 1009.3
09 24.04 ЮЗ 6-13
{14}
4000 м слабый ливневой дождь 10/10 300 м
[Cb cap]
+8.7 +6.4 85 +5 +5 очень
холодно
1013.6 1010.0
12 24.04 З 6-13
{13}
10 км в посл. час ливневой дождь 10/8 600 м
[Cb cap Ac trans Ci fib]
+10.1 +5.5 73 +7 +7 очень
холодно
1016.5 1012.9
15 24.04 З 3
{13}
10 км 3/3 1000 м
[Cb cap]
+9.6 +2.5 61 +8 +8 холодно 1018.3 1014.7 +11.1 1
18 24.04 З 4 10 км ясно +6.6 +3.8 82 +3 +3 очень
холодно
1021.0 1017.3
21 24.04 З 3 10 км 10/0
[Ac und]
+6.6 +3.5 81 +4 +4 холодно 1022.0 1018.3
00 25.04 З 2 10 км ясно +5.6 +2.9 83 +3 +3 холодно 1023.3 1019.6
03 25.04 ЮЗ 3 н/о н/о +3.9 +1.6 85 0 0 очень
холодно
1024.5 1020.7 +3.0
06 25.04 З 3 10 км 5/5 600 м
[Cb cap]
+9.3 +3.8 68 +7 +11 прохладно 1027.6 1023.9 +4.5
09 25.04 СЗ 4 10 км 8/8 600 м
[Cb cap]
+13.4 +1.9 46 +12 +14 по сезону 1028.7 1025.1
12 25.04 СЗ 5-11
{11}
10 км в посл. час ливневой дождь 8/8 600 м
[Cb cap]
+12.1 +3.6 56 +10 +11 холодно 1028.8 1025.2
15 25.04 З 2
{12}
10 км в посл. час ливневой дождь 9/9 600 м
[Cb cap]
+9.9 +5.3 73 +9 +9 холодно 1030.2 1026.6 +14.0 1
18 25.04 ЮЗ 1 10 км {ливн. осадки} 1/0
[Ac trans]
+8.4 +4.8 78 +8 +8 прохладно 1031.1 1027.4
21 25.04 Ю 1 10 км ясно +5.8 +4.4 91 +5 +5 холодно 1030.7 1027.0
00 26.04 В 1 10 км ясно +4.7 +3.5 92 +3 +3 холодно 1030.0 1026.3
03 26.04 В 2 10 км ясно +4.3 +3.1 92 +1 +2 очень
холодно
1030.0 1026.2 +3.6
06 26.04 В 4 10 км ясно +11.3 +2.3 54 +9 +15 прохладно 1029.9 1026.3 +4.0
09 26.04 В 3 10 км ясно +14.9 +3.2 45 +14 +28 опасность
простуды
1028.8 1025.2
12 26.04 В 2 10 км ясно +18.1 +1.7 33 +19 +30 тепло 1027.0 1023.5
15 26.04 В 1 10 км ясно +18.7 +1.3 31 +20 +22 тепло 1025.5 1022.0 +19.1
18 26.04 В 1 10 км ясно +15.4 +3.4 45 +16 +16 тепло 1024.9 1021.4
21 26.04 ЮВ 1 10 км ясно +11.9 +3.2 55 +12 +12 по сезону 1024.4 1020.8
00 27.04 ЮВ 1 10 км ясно +8.1 +3.8 74 +7 +7 по сезону 1023.8 1020.1
03 27.04 ЮВ 1 10 км ясно +6.1 +3.0 80 +5 +5 холодно 1023.9 1020.2 +6.1
06 27.04 З 1 10 км ясно +11.8 +4.5 61 +12 +22 по сезону 1023.9 1020.3 +6.0
09 27.04 СВ 2 10 км ясно +18.7 +7.0 46 +20 +36 опасность
простуды
1022.9 1019.4
12 27.04 штиль 0 10 км ясно +20.2 +10.4 53 +21 +37 комфорт 1021.7 1018.2
15 27.04 СЗ 1 10 км ясно +23.5 +9.0 40 +24 +26 комфорт 1020.6 1017.1 +24.4
18 27.04 В 1 10 км ясно +16.9 +11.0 68 +18 +18 тепло 1020.9 1017.4
21 27.04 ЮВ 1 10 км ясно +13.7 +7.0 64 +14 +14 тепло 1020.9 1017.3
00 28.04 штиль 0 10 км ясно +9.5 +7.0 84 +9 +9 по сезону 1020.3 1016.6
03 28.04 ЮВ 1 10 км ясно +8.9 +5.1 77 +8 +9 прохладно 1020.6 1016.9 +8.9
06 28.04 ЮЗ 1 10 км ясно +16.2 +6.7 53 +17 +27 тепло 1020.4 1016.9 +8.7
09 28.04 ЮЗ 1 10 км ясно +21.7 +7.1 39 +23 +42 комфорт 1019.8 1016.3
12 28.04 СЗ 3 10 км ясно +23.4 +6.7 34 +24 +34 комфорт 1019.2 1015.7
15 28.04 СЗ 2 10 км ясно +23.0 +6.7 35 +24 +25 комфорт 1018.2 1014.8 +24.6
18 28.04 ЮЗ 1 10 км ясно +16.4 +9.9 65 +17 +17 тепло 1018.7 1015.2
21 28.04 ЮЗ 1 10 км ясно +12.2 +8.8 80 +12 +12 по сезону 1018.4 1014.8
00 29.04 штиль 0 10 км ясно +9.7 +8.2 90 +9 +9 по сезону 1017.7 1014.1
03 29.04 штиль 0 10 км ясно +9.4 +7.3 87 +9 +9 по сезону 1018.0 1014.4 +8.6

 

Местоположение метеостанции Краснодар (Краснодарский край, Россия): широта 45.05 долгота 39.03 высота над уровнем моря 29 м.

В архиве по умолчанию представлена погода в Краснодаре за последнюю неделю. Архивные данные за месяц целиком и за предыдущие месяцы, начиная с января 2011 года, Вы можете получить, выбрав интересующий диапазон дат из раскрывающегося списка и нажав кнопку "Ввод!".

Внимание! Время в таблицах - всемирное. Для получения местного времени необходимо прибавить поправку, которая в Краснодаре равна 3 ч.

Смотрите также архив погоды в соседних городах и на ближайших метеорологических станциях:

Погода в Горячем Ключе (Краснодарский край, Россия) (47 км)
Погода в Усть-Лабинске (Краснодарский край, Россия) (58 км)
Погода в Кореновске (Краснодарский край, Россия) (59 км)
Погода в Тимашевске (Краснодарский край, Россия) (65 км)
Погода в Славянске-на-Кубани (Краснодарский край, Россия) (76 км)
Погода в Белореченске (Краснодарский край, Россия) (76 км)
Погода в Крымске (Краснодарский край, Россия) (82 км)
Погода в Джубге (Краснодарский край, Россия) (84 км)
Погода в Горном (Краснодарский край, Россия) (88 км)
Погода в Геленджике (Краснодарский край, Россия) (92 км)

Пояснения к столбцам:

Ветер - указаны скорость ветра в м/с - средняя за 10 мин, порывы в срок и между сроками (в фигурных скобках) и направление, откуда дует ветер: С - северный, СВ - северо-восточный, В - восточный, ЮВ - юго-восточный, Ю - южный, ЮЗ - юго-западный, З - западный, СЗ - северо-западный.
Видимость - горизонтальная дальность видимости в метрах или километрах. При видимости от 1 до 10 км при отсутствии осадков обычно наблюдается дымка, при ухудшении видимости до 1 км и менее - туман. В сухую погоду видимость может ухудшаться дымом, пылью или мглою.
Явления - указаны атмосферные явления, наблюдавшиеся в срок или в последний час перед сроком; фигурными скобками обозначены явления, наблюдавшиеся между сроками (за 1-3 часа до срока); квадратными скобками обозначены град или гололедные отложения с указанием их диаметра в мм.
Облачность - указаны через наклонную черту общая и нижняя облачность в баллах и высота нижней границы облаков в метрах; квадратными скобками обозначены формы облаков: Ci - перистые, Cs - перисто-слоистые, Cc - перисто-кучевые, Ac - высококучевые, As - высокослоистые, Sc - слоисто-кучевые, Ns - слоисто-дождевые, Cu - кучевые, Cb - кучево-дождевые. Подробнее классификацию облаков см. в Атласе облаков (PDF).
T - Температура воздуха - температура, измеренная на высоте 2 м над землей.
Td - Температура точки росы - температура, при понижении до которой содержащийся в воздухе водяной пар достигнет насыщения.
f - Относительная влажность воздуха - влажноcть воздуха, измеренная на высоте 2 м над землей.
Te - Эффективная температура - температура, которую ощущает одетый по сезону человек в тени. Характеристика душности погоды. При расчете учитывается влияние влажности воздуха и скорости ветра на теплоощущения человека.
Tes - Эффективная температура на солнце - температура, которую ощущает человек, с поправкой на солнечный нагрев. Характеристика знойности погоды. Зависит от высоты солнца над горизонтом, облачности и скорости ветра. Ночью, в пасмурную погоду, а также при ветре 12 м/с и более поправка равна нулю.
P - Атмосферное давление - приведенное к уровню моря атмосферное давление.
Po - Атмосферное давление - измеренное на уровне метеостанции атмосферное давление.
Tmin - Минимальная температура - минимум температуры воздуха на высоте 2 м над землей.
Tmax - Максимальная температура - максимум температуры воздуха на высоте 2 м над землей.
R - Количество осадков - Количество выпавших осадков за период времени, мм. При наведении курсора мыши на число - период времени, за который выпало указанное количество осадков.
R24 - Количество осадков - Количество выпавших осадков за 24 часа, мм.
S - Снежный покров - Высота снежного покрова, см. При наведении курсора мыши на число - состояние снежного покрова и степень покрытия местности в баллах.